FW0689 Weather Reports


Display with metric or nautical units.
time (UTC)temp
F
wind
direction
speed
MPH
gust
MPH
rain 1hr
in
rain 24hr
in
rain mn
in
humidity
%
barometer
mb
20260901102234 65 268 0.0 0.0 0.00 0.00 0.00 40 1023.6
20260901100334 66 264 0.0 0.0 0.00 0.00 0.00 39 1023.5
20260901095332 65 256 0.0 0.0 0.00 0.00 0.00 40 1023.5
20260901094333 65 271 0.0 0.0 0.00 0.00 0.00 40 1023.5
20260901093335 65 263 0.0 0.0 0.00 0.00 0.00 40 1023.5
20260901092332 65 269 0.0 0.0 0.00 0.00 0.00 40 1023.5
20260901091331 66 261 0.0 0.0 0.00 0.00 0.00 40 1023.4
20260901090348 66 247 0.0 0.0 0.00 0.00 0.00 40 1023.2
20260901084335 66 242 0.0 0.0 0.00 0.00 0.00 38 1023.1
20260901080531 64 236 0.0 0.0 0.00 0.00 0.00 39 1023.0
20260901075533 64 271 0.0 0.0 0.00 0.00 0.00 39 1022.9
20260901074631 63 239 0.0 0.0 0.00 0.00 0.00 39 1022.8
20260901073633 63 238 0.0 0.0 0.00 0.00 0.00 39 1022.8
20260901071733 63 239 0.0 0.0 0.00 0.00 0.00 40 1022.5
20260901070734 62 225 0.0 0.0 0.00 0.00 0.00 40 1022.5
20260901065733 62 238 0.0 0.0 0.00 0.00 0.00 40 1022.4
20260901064732 62 244 0.0 0.0 0.00 0.00 0.00 40 1022.3
20260901063748 61 237 0.0 0.0 0.00 0.00 0.00 41 1022.3
20260901062832 61 235 0.0 0.0 0.00 0.00 0.00 41 1022.2
20260901061931 61 219 0.0 0.0 0.00 0.00 0.00 41 1022.2
20260901060934 60 238 0.0 0.0 0.00 0.00 0.00 41 1022.1
20260901055932 60 212 0.0 0.0 0.00 0.00 0.00 41 1021.9
20260901054932 59 212 0.0 0.0 0.00 0.00 0.00 41 1022.0
20260901053932 59 226 0.0 0.0 0.00 0.00 0.00 42 1022.0
20260901052947 59 203 0.0 0.0 0.00 0.00 0.00 42 1021.8
20260901051934 59 202 0.0 0.0 0.00 0.00 0.00 42 1021.7
20260901044932 59 225 0.0 0.0 0.00 0.00 0.00 42 1021.5
20260901043931 59 247 0.0 0.0 0.00 0.00 0.00 42 1021.5
20260901042933 59 228 0.0 0.0 0.00 0.00 0.00 42 1021.5
20260901041935 59 233 0.0 0.0 0.00 0.00 0.00 42 1021.5
20260901040933 59 229 0.0 0.0 0.00 0.00 0.00 42 1021.2
20260901040032 59 211 0.0 0.0 0.00 0.00 0.00 42 1021.2
20260901035130 59 215 0.0 0.0 0.00 0.00 0.00 42 1021.2
20260901034134 59 203 0.0 0.0 0.00 0.00 0.00 42 1021.1
20260901033231 59 231 0.0 0.0 0.00 0.00 0.00 42 1021.2
20260901032236 59 230 0.0 0.0 0.00 0.00 0.00 42 1021.1
20260901031233 59 202 0.0 0.0 0.00 0.00 0.00 42 1021.0
20260901030331 59 202 0.0 0.0 0.00 0.00 0.00 42 1020.9
20260901024334 59 225 0.0 0.0 0.00 0.00 0.00 42 1020.8
20260901023431 59 204 0.0 0.0 0.00 0.00 0.00 42 1020.8
20260901022432 59 202 0.0 0.0 0.00 0.00 0.00 42 1020.9
20260901021433 59 225 0.0 0.0 0.00 0.00 0.00 42 1020.8
20260901020434 59 220 0.0 0.0 0.00 0.00 0.00 42 1020.8
20260901015531 59 202 0.0 0.0 0.00 0.00 0.00 42 1020.9
20260901014535 58 205 0.0 0.0 0.00 0.00 0.00 42 1020.7
20260901013633 58 199 0.0 0.0 0.00 0.00 0.00 42 1020.8
20260901012633 58 215 0.0 0.0 0.00 0.00 0.00 42 1020.6
20260901011634 58 184 0.0 0.0 0.00 0.00 0.00 42 1020.6
20260901010730 58 202 0.0 0.0 0.00 0.00 0.00 42 1020.6
20260901005749 58 202 0.0 0.0 0.00 0.00 0.00 42 1020.6
20260901004735 58 202 0.0 0.0 0.00 0.00 0.00 42 1020.5
20260901003732 58 213 0.0 0.0 0.00 0.00 0.00 42 1020.4
20260901002731 58 270 0.0 0.0 0.00 0.00 0.00 42 1020.3
20260901001734 58 241 0.0 0.0 0.00 0.00 0.00 42 1020.3
20260901000735 58 202 0.0 0.0 0.00 0.00 0.00 42 1020.3
20260831235733 59 228 0.0 0.0 0.00 0.00 0.00 42 1020.3
20260831233831 59 202 0.0 0.0 0.00 0.00 0.00 42 1020.2
20260831232847 59 227 0.0 0.0 0.00 0.00 0.00 42 1020.1
20260831225831 59 202 0.0 0.0 0.00 0.00 0.00 42 1020.1
20260831224832 59 245 0.0 0.0 0.00 0.00 0.00 42 1020.1
20260831223832 59 247 0.0 0.0 0.00 0.00 0.00 41 1020.1
20260831222931 59 251 0.0 0.0 0.00 0.00 0.00 41 1020.1
20260831221932 59 230 0.0 0.0 0.00 0.00 0.00 41 1020.0
20260831221031 59 242 0.0 0.0 0.00 0.00 0.00 41 1020.0
20260831220131 59 222 0.0 0.0 0.00 0.00 0.00 41 1020.0
20260831215126 59 236 0.0 0.0 0.00 0.00 0.00 41 1019.9
20260831214128 59 245 0.0 0.0 0.00 0.00 0.00 41 1019.9
20260831213128 60 234 0.0 0.0 0.00 0.00 0.00 41 1019.8
20260831212128 60 246 0.0 0.0 0.00 0.00 0.00 41 1019.8
20260831211126 60 241 0.0 0.0 0.00 0.00 0.00 41 1019.6
20260831210144 60 254 0.0 0.0 0.00 0.00 0.00 41 1019.6
20260831205127 60 246 0.0 0.0 0.00 0.00 0.00 41 1019.4
20260831204126 60 252 0.0 0.0 0.00 0.00 0.00 41 1019.3
20260831203126 60 250 0.0 0.0 0.00 0.00 0.00 41 1019.3
20260831202127 61 234 0.0 0.0 0.00 0.00 0.00 41 1019.2
20260831201127 61 249 0.0 0.0 0.00 0.00 0.00 41 1019.0
20260831200227 61 242 0.0 0.0 0.00 0.00 0.00 41 1018.7
20260831194243 60 247 0.0 0.0 0.00 0.00 0.00 41 1018.5
20260831193228 60 253 0.0 0.0 0.00 0.00 0.00 41 1018.4
20260831192228 60 253 0.0 0.0 0.00 0.00 0.00 41 1018.3
20260831191228 60 249 0.0 0.0 0.00 0.00 0.00 40 1018.3
20260831190227 60 246 0.0 0.0 0.00 0.00 0.00 41 1018.1
20260831185227 60 255 0.0 0.0 0.00 0.00 0.00 41 1017.8
20260831184228 60 249 0.0 0.0 0.00 0.00 0.00 41 1017.6
20260831183227 61 264 0.0 0.0 0.00 0.00 0.00 41 1017.5
20260831182227 61 261 0.0 0.0 0.00 0.00 0.00 41 1017.4
20260831181229 61 263 0.0 0.0 0.00 0.00 0.00 41 1017.2
20260831180228 61 256 0.0 0.0 0.00 0.00 0.00 41 1017.1
20260831175227 62 267 0.0 0.0 0.00 0.00 0.00 41 1016.9
20260831174228 62 282 0.0 0.0 0.00 0.00 0.00 41 1016.6
20260831173227 62 258 0.0 0.0 0.00 0.00 0.00 41 1016.3
20260831172229 62 249 0.0 0.0 0.00 0.00 0.00 41 1016.2
20260831171227 62 275 0.0 0.0 0.00 0.00 0.00 40 1016.4
20260831170228 62 253 0.0 0.0 0.00 0.00 0.00 40 1016.2
20260831165228 62 268 0.0 0.0 0.00 0.00 0.00 40 1016.1
20260831164228 62 244 0.0 0.0 0.00 0.00 0.00 40 1015.7
20260831163228 62 261 0.0 0.0 0.00 0.00 0.00 40 1015.7
20260831162325 62 262 0.0 0.0 0.00 0.00 0.00 40 1015.4
20260831160328 64 276 0.0 0.0 0.00 0.00 0.00 39 1015.4
20260831155326 64 271 0.0 0.0 0.00 0.00 0.00 39 1015.2
20260831153329 64 282 0.0 0.0 0.00 0.00 0.00 39 1015.2
20260831152343 64 268 0.0 0.0 0.00 0.00 0.00 40 1015.1
20260831151326 64 284 0.0 0.0 0.00 0.00 0.00 40 1014.8
20260831145426 63 269 0.0 0.0 0.00 0.00 0.00 40 1014.6
20260831143428 61 273 0.0 0.0 0.00 0.00 0.00 41 1014.6
20260831142427 60 249 0.0 0.0 0.00 0.00 0.00 41 1014.6
20260831140428 64 267 0.0 0.0 0.00 0.00 0.00 40 1014.5
20260831135427 64 226 0.0 0.0 0.00 0.00 0.00 40 1014.3
20260831133527 62 203 0.0 0.0 0.00 0.00 0.00 40 1014.0
20260831131626 59 202 0.0 0.0 0.00 0.00 0.00 42 1014.2
20260831130628 59 216 0.0 0.0 0.00 0.00 0.00 42 1014.1
20260831125726 59 212 0.0 0.0 0.00 0.00 0.00 41 1013.9
20260831124728 60 247 0.0 0.0 0.00 0.00 0.00 40 1013.9
20260831123827 60 258 0.0 0.0 0.00 0.00 0.00 41 1013.7
20260831122827 61 270 0.0 0.0 0.00 0.00 0.00 39 1013.7
20260831121841 64 287 0.0 0.0 0.00 0.00 0.00 40 1013.4
20260831120927 67 295 0.0 0.0 0.00 0.00 0.00 39 1013.2
20260831115926 67 213 0.0 0.0 0.00 0.00 0.00 39 1012.9
20260831114927 67 222 0.0 0.0 0.00 0.00 0.00 39 1012.7
20260831112943 64 209 0.0 0.0 0.00 0.00 0.00 40 1012.8
20260831111926 62 184 0.0 0.0 0.00 0.00 0.00 40 1012.9
20260831111025 61 202 0.0 0.0 0.00 0.00 0.00 41 1013.0
20260831105027 64 242 0.0 0.0 0.00 0.00 0.00 39 1013.3
20260831104026 65 212 0.0 0.0 0.00 0.00 0.00 39 1012.8